TimeEDT,TemperatureF,Dew PointF,Humidity,Sea Level PressureIn,VisibilityMPH,Wind Direction,Wind SpeedMPH,Gust SpeedMPH,PrecipitationIn,Events,Conditions,WindDirDegrees,DateUTC
12:54 AM,52.0,41.0,66,29.77,10.0,SW,9.2,-,N/A,,Overcast,230,2012-10-21 04:54:00
1:04 AM,51.8,41.0,67,29.78,10.0,SW,19.6,25.3,0.00,Rain,Light Rain,230,2012-10-21 05:04:00
1:54 AM,51.1,42.1,71,29.79,10.0,WSW,13.8,26.5,0.00,,Light Drizzle,240,2012-10-21 05:54:00
2:39 AM,51.8,42.8,71,29.80,10.0,WSW,15.0,-,0.00,,Overcast,240,2012-10-21 06:39:00
2:54 AM,51.1,42.1,71,29.80,10.0,WSW,12.7,-,0.00,,Overcast,240,2012-10-21 06:54:00
3:34 AM,51.8,42.8,71,29.82,10.0,WSW,15.0,-,N/A,,Mostly Cloudy,250,2012-10-21 07:34:00
3:54 AM,51.1,42.1,71,29.82,10.0,WSW,15.0,-,N/A,,Overcast,250,2012-10-21 07:54:00
4:30 AM,50.0,42.8,76,29.84,10.0,WSW,13.8,20.7,N/A,,Mostly Cloudy,250,2012-10-21 08:30:00
4:54 AM,50.0,42.1,74,29.85,10.0,WSW,13.8,20.7,N/A,,Overcast,250,2012-10-21 08:54:00
5:54 AM,51.1,43.0,74,29.88,10.0,WSW,19.6,27.6,0.00,,Light Drizzle,250,2012-10-21 09:54:00
6:54 AM,50.0,43.0,77,29.89,10.0,WSW,12.7,-,0.00,,Overcast,250,2012-10-21 10:54:00
7:54 AM,48.9,43.0,80,29.92,10.0,WSW,11.5,-,N/A,,Scattered Clouds,240,2012-10-21 11:54:00
8:54 AM,51.1,44.1,77,29.93,10.0,WSW,11.5,-,N/A,,Scattered Clouds,250,2012-10-21 12:54:00
9:54 AM,55.0,44.1,67,29.92,10.0,West,13.8,-,N/A,,Scattered Clouds,260,2012-10-21 13:54:00
10:54 AM,57.9,44.1,60,29.93,10.0,West,16.1,-,N/A,,Scattered Clouds,280,2012-10-21 14:54:00
11:54 AM,61.0,43.0,52,29.93,10.0,West,21.9,27.6,N/A,,Scattered Clouds,270,2012-10-21 15:54:00
12:54 PM,61.0,41.0,48,29.92,10.0,West,24.2,31.1,N/A,,Mostly Cloudy,270,2012-10-21 16:54:00
1:54 PM,62.1,41.0,46,29.92,10.0,West,25.3,34.5,N/A,,Mostly Cloudy,280,2012-10-21 17:54:00
2:54 PM,61.0,41.0,48,29.93,10.0,West,20.7,28.8,N/A,,Mostly Cloudy,280,2012-10-21 18:54:00
3:54 PM,59.0,39.9,49,29.95,10.0,West,18.4,28.8,N/A,,Overcast,280,2012-10-21 19:54:00
4:54 PM,57.9,41.0,53,29.96,10.0,West,15.0,-,N/A,,Mostly Cloudy,270,2012-10-21 20:54:00
5:54 PM,57.9,41.0,53,29.96,10.0,West,15.0,-,N/A,,Mostly Cloudy,280,2012-10-21 21:54:00
6:54 PM,57.0,39.9,53,29.98,10.0,West,13.8,-,N/A,,Mostly Cloudy,270,2012-10-21 22:54:00
7:54 PM,54.0,39.9,59,30.00,10.0,West,9.2,-,N/A,,Scattered Clouds,260,2012-10-21 23:54:00
8:54 PM,55.0,43.0,64,30.01,10.0,WSW,13.8,-,N/A,,Scattered Clouds,250,2012-10-22 00:54:00
9:54 PM,53.1,44.1,71,30.02,10.0,West,11.5,-,N/A,,Partly Cloudy,260,2012-10-22 01:54:00
10:54 PM,51.1,44.1,77,30.02,10.0,West,10.4,-,N/A,,Partly Cloudy,260,2012-10-22 02:54:00
11:54 PM,50.0,45.0,83,30.03,10.0,WSW,11.5,-,N/A,,Scattered Clouds,250,2012-10-22 03:54:00